Location: Balsareny
(41.8670°N, 1.8830°E)
Time: 13:11:43
(UTC+02:00)

BlueWalker 3 - Visible Passes

Search period start: 08 May 2026 00:00
Search period end: 18 May 2026 00:00
Orbit: 448 x 458 km, 53.2° (Epoch: 7 May)

Date Brightness Start Highest point End Pass type
(mag) Time Alt. Az. Time Alt. Az. Time Alt. Az.
8 May 1.9 04:17:39 67° E 04:17:39 67° E 04:20:49 10° NE visible
8 May 3.7 05:52:12 10° WNW 05:55:01 21° NNW 05:57:49 10° NNE visible
9 May 3.4 03:42:05 29° ENE 03:42:05 29° ENE 03:44:02 10° ENE visible
9 May 3.5 05:15:43 13° WNW 05:18:10 25° NNW 05:21:09 10° NNE visible
10 May 4.5 03:06:29 15° ENE 03:06:29 15° ENE 03:07:12 10° ENE visible
10 May 3.2 04:40:06 24° WNW 04:41:19 30° NNW 04:44:30 10° NE visible
11 May 2.8 04:04:26 37° NNW 04:04:29 37° NNW 04:07:48 10° NE visible
11 May 4.4 05:40:37 10° NW 05:42:40 14° N 05:44:44 10° NNE visible
12 May 3.3 03:28:43 34° NNE 03:28:43 34° NNE 03:31:06 10° NE visible
12 May 4.3 05:03:30 10° NW 05:05:44 16° NNW 05:07:59 10° NNE visible
13 May 4.1 02:52:57 22° NE 02:52:57 22° NE 02:54:22 10° NE visible
13 May 4.2 04:26:34 11° WNW 04:28:48 17° NNW 04:31:15 10° NNE visible
14 May 4.7 02:17:08 13° NE 02:17:08 13° NE 02:17:36 10° NE visible
14 May 4.0 03:50:45 17° NW 03:51:53 19° NNW 03:54:33 10° NNE visible
14 May 4.6 05:28:35 10° NNW 05:30:22 13° N 05:32:09 10° NNE visible
15 May 3.9 03:14:52 22° NNW 03:14:58 22° NNW 03:17:49 10° NNE visible
15 May 4.6 04:51:37 10° NNW 04:53:23 13° N 04:55:10 10° NNE visible
16 May 4.0 02:38:55 23° N 02:38:55 23° N 02:41:07 10° NE visible
16 May 4.7 04:14:35 10° NW 04:16:25 13° N 04:18:14 10° NNE visible
16 May 4.5 05:52:22 10° NNW 05:54:55 18° NNE 05:57:27 10° ENE visible
17 May 4.3 02:02:52 20° NNE 02:02:52 20° NNE 02:04:23 10° NE visible
17 May 4.7 03:37:29 10° NW 03:39:25 14° N 03:41:21 10° NNE visible
17 May 4.6 05:15:37 10° NNW 05:17:57 16° NNE 05:20:17 10° NE visible
